Waarnemingen

Advertentie
Mijn weer
La Rochelle/Ile de Re, Frankrijk (7316): temperatuur & dauwpunt: 14.10.2018 15:00:00 - 20.10.2018 15:00:00 (CEST)La Rochelle/Ile de Re, Frankrijk (7316): windsnelheid & windstoten: 14.10.2018 15:00:00 - 20.10.2018 15:00:00 (CEST)La Rochelle/Ile de Re, Frankrijk (7316): windrichting: 14.10.2018 15:00:00 - 20.10.2018 15:00:00 (CEST)La Rochelle/Ile de Re, Frankrijk (7316): luchtdruk: 14.10.2018 15:00:00 - 20.10.2018 15:00:00 (CEST)La Rochelle/Ile de Re, Frankrijk (7316): zicht: 14.10.2018 15:00:00 - 20.10.2018 15:00:00 (CEST)La Rochelle/Ile de Re, Frankrijk (7316): Zonneschijnduur: 14.10.2018 15:00:00 - 20.10.2018 15:00:00 (CEST)La Rochelle/Ile de Re, Frankrijk (7316): neerslag: 14.10.2018 15:00:00 - 20.10.2018 15:00:00 (CEST)
Datum & Tijd tt [°C] td [°C] ff [km/u] ff [kn] fx [km/u] fx [kn] dd ppp [hPa] vv [km] sd [min] rr [mm]
20.10.2018 15:00:00 22,7 12,0 23 12 39 21 O 1025,8 6 60 0,0
20.10.2018 14:00:00 21,3 12,2 25 13 39 21 O 1026,5 6 60 0,0
20.10.2018 13:00:00 19,1 12,1 26 14 38 21 O 1026,9 4,9 60 0,0
20.10.2018 12:00:00 17,1 11,6 22 12 31 17 O 1026,8 4,7 60 0,0
20.10.2018 11:00:00 14,8 11,2 23 13 39 21 O 1026,5 4,1 60 0,0
20.10.2018 10:00:00 12,6 10,5 22 12 30 16 O 1026,3 4,5 60 0,0
20.10.2018 09:00:00 11,1 9,7 20 11 32 17 O 1026,1 3,6 9 0,0
20.10.2018 08:00:00 11,0 9,9 16 8 30 16 ONO 1025,4 3,3 0 0,0
20.10.2018 07:00:00 11,3 10,0 20 11 31 17 ONO 1025,2 3,4 0 0,0
20.10.2018 06:00:00 11,4 10,1 18 10 29 16 NO 1024,4 3,4 0 0,0
20.10.2018 05:00:00 11,7 10,3 16 9 25 14 ONO 1024,1 3,7 0 0,0
20.10.2018 04:00:00 12,2 10,6 19 10 26 14 NO 1024,2 4,0 0 0,0
20.10.2018 03:00:00 12,4 10,8 16 9 23 12 NO 1024,4 4,3 0 0,0
20.10.2018 02:00:00 12,5 10,9 15 8 25 13 ONO 1024,1 4,1 0 0,0
20.10.2018 01:00:00 12,6 11,0 12 6 23 12 ONO 1023,8 4,4 0 0,0
20.10.2018 00:00:00 13,3 11,4 15 8 28 15 ONO 1023,8 4,9 0 0,0
19.10.2018 23:00:00 14,2 11,7 21 11 29 16 ONO 1023,7 5 0 0,0
19.10.2018 22:00:00 15,0 12,1 21 11 37 20 ONO 1023,3 6 0 0,0
19.10.2018 21:00:00 16,1 12,5 25 14 39 21 NO 1023,0 7 0 0,0
19.10.2018 20:00:00 17,5 12,6 25 13 37 20 NO 1022,3 9 0 0,0
19.10.2018 19:00:00 19,7 12,5 17 9 29 16 NO 1021,2 17 48 0,0
19.10.2018 18:00:00 21,3 12,4 19 11 31 17 ONO 1020,4 16 60 0,0
19.10.2018 17:00:00 22,1 12,1 21 12 38 20 O 1020,1 12 60 0,0
19.10.2018 16:00:00 22,8 12,1 22 12 34 19 O 1020,0 11 60 0,0
19.10.2018 15:00:00 22,2 12,7 25 13 37 20 ONO 1020,6 10 60 0,0
19.10.2018 14:00:00 21,2 12,6 23 12 37 20 ONO 1021,0 10 60 0,0
19.10.2018 13:00:00 19,1 12,1 23 12 36 19 ONO 1021,0 10 60 0,0
19.10.2018 12:00:00 17,0 12,1 20 11 31 17 ONO 1021,0 9 60 0,0
19.10.2018 11:00:00 14,8 11,6 17 9 29 16 NO 1021,1 8 60 0,0
19.10.2018 10:00:00 12,8 10,7 18 10 27 15 ONO 1020,4 6 60 0,0
19.10.2018 09:00:00 11,0 10,1 9 5 15 8 ONO 1019,9 4,4 10 0,0
19.10.2018 08:00:00 10,9 9,8 8 5 19 10 ONO 1019,6 4,5 0 0,0
19.10.2018 07:00:00 11,6 10,3 13 7 19 10 NO 1019,3 4,8 0 0,0
19.10.2018 06:00:00 11,9 10,3 10 5 25 13 ONO 1019,2 5 0 0,0
19.10.2018 05:00:00 13,0 11,2 18 10 26 14 NO 1019,3 6 0 0,0
19.10.2018 04:00:00 13,2 11,1 15 8 22 12 ONO 1019,3 7 0 0,0
19.10.2018 03:00:00 13,8 11,5 16 9 23 13 ONO 1019,4 8 0 0,0
19.10.2018 02:00:00 14,4 11,5 18 10 23 12 ONO 1019,2 10 0 0,0
19.10.2018 01:00:00 14,8 11,8 17 9 26 14 ONO 1019,2 12 0 0,0
19.10.2018 00:00:00 15,5 12,1 17 9 25 14 NO 1019,4 15 0 0,0
18.10.2018 23:00:00 15,7 12,4 17 9 26 14 NO 1019,2 13 0 0,0
18.10.2018 22:00:00 16,5 12,6 17 9 26 14 NO 1018,6 13 0 0,0
18.10.2018 21:00:00 17,7 12,6 18 10 30 16 NO 1018,2 16 0 0,0
18.10.2018 20:00:00 19,2 12,2 18 10 29 16 NO 1017,6 26 0 0,0
18.10.2018 19:00:00 20,6 11,5 17 9 36 20 ONO 1017,0 37 33 0,0
18.10.2018 18:00:00 22,2 11,9 27 14 45 24 ONO 1016,6 30 60 0,0
18.10.2018 17:00:00 22,1 12,1 26 14 42 23 O 1016,6 20 25 0,0
18.10.2018 16:00:00 22,7 12,0 29 16 40 22 ONO 1016,6 15 58 0,0
18.10.2018 15:00:00 23,0 12,3 27 14 43 23 O 1017,2 12 60 0,0
18.10.2018 14:00:00 22,4 12,6 27 15 39 21 O 1017,8 12 60 0,0
18.10.2018 13:00:00 20,8 12,7 25 14 37 20 O 1018,3 12 60 0,0
18.10.2018 12:00:00 19,3 12,8 24 13 35 19 ONO 1018,4 12 60 0,0
18.10.2018 11:00:00 18,1 13,0 23 13 36 19 O 1018,2 12 16 0,0
18.10.2018 10:00:00 16,0 12,4 22 12 30 16 O 1017,8 15 0 0,0
18.10.2018 09:00:00 15,1 12,0 19 10 31 17 O 1017,5 18 1 0,0
18.10.2018 08:00:00 15,3 12,1 20 11 30 16 ONO 1017,0 20 0 0,0
18.10.2018 07:00:00 15,9 12,3 20 11 28 15 ONO 1016,5 28 0 0,0
18.10.2018 06:00:00 15,8 12,4 18 10 29 16 ONO 1016,2 30 0 0,0
18.10.2018 05:00:00 15,6 12,5 19 11 28 15 ONO 1016,0 32 0 0,0
18.10.2018 04:00:00 15,2 12,7 16 9 20 11 ONO 1016,5 27 0 0,0
18.10.2018 03:00:00 14,7 12,9 13 7 18 10 NO 1016,7 18 0 0,0
18.10.2018 02:00:00 15,0 13,4 11 6 16 9 NO 1016,9 15 0 0,0
18.10.2018 01:00:00 15,0 13,5 11 6 16 9 NO 1017,1 15 0 0,0
18.10.2018 00:00:00 15,1 13,5 9 5 18 10 NNO 1017,3 15 0 0,0
17.10.2018 23:00:00 15,5 13,5 13 7 20 11 ONO 1017,2 16 0 0,0
17.10.2018 22:00:00 15,4 13,8 13 7 18 10 ONO 1017,1 12 0 0,0
17.10.2018 21:00:00 15,9 13,7 10 5 16 9 NNO 1016,9 16 0 0,0
17.10.2018 20:00:00 16,5 14,1 10 5 17 9 NNO 1016,6 19 0 0,0
17.10.2018 19:00:00 17,3 14,0 10 6 19 10 N 1016,1 25 0 0,0
17.10.2018 18:00:00 17,6 14,1 11 6 19 10 NNW 1015,9 25 0 0,0
17.10.2018 17:00:00 18,5 13,4 13 7 19 11 N 1016,0 26 31 0,0
17.10.2018 16:00:00 17,4 13,3 13 7 18 10 NNO 1016,5 20 7 0,0
17.10.2018 15:00:00 17,2 12,5 11 6 17 9 NNO 1017,0 27 9 0,0
17.10.2018 14:00:00 15,6 12,2 8 4 11 6 N 1017,8 26 0 0,0
17.10.2018 13:00:00 15,3 11,5 8 5 11 6 ONO 1018,4 20 0 0,0
17.10.2018 12:00:00 14,8 11,0 3 2 9 5 NNO 1018,8 20 16 0,0
17.10.2018 11:00:00 13,6 10,9 6 4 10 5 N 1019,1 27 0 0,0
17.10.2018 10:00:00 12,4 10,5 3 2 9 5 NO 1019,0 28 0 0,0
17.10.2018 09:00:00 11,6 10,0 6 4 12 6 ONO 1019,1 17 0 0,0
17.10.2018 08:00:00 12,5 11,2 9 5 12 6 NNO 1019,1 17 0 0,0
17.10.2018 07:00:00 12,0 10,9 6 3 11 6 NNO 1019,3 15 0 0,0
17.10.2018 06:00:00 11,7 10,6 5 3 9 5 NO 1019,2 17 0 0,0
17.10.2018 05:00:00 10,8 9,9 3 2 10 6 NNO 1019,2 30 0 0,0
17.10.2018 04:00:00 10,6 9,4 8 5 11 6 ONO 1019,6 30 0 0,0
17.10.2018 03:00:00 11,5 10,2 7 4 13 7 NO 1019,8 20 0 0,0
17.10.2018 02:00:00 12,0 10,9 11 6 13 7 N 1020,0 52 0 0,0
17.10.2018 01:00:00 12,7 11,1 7 4 19 11 NNO 1020,4 60 0 0,0
17.10.2018 00:00:00 12,9 11,1 7 4 10 5 N 1020,4 60 0 0,0
16.10.2018 23:00:00 13,1 10,8 8 5 12 7 N 1020,5 60 0 0,0
16.10.2018 22:00:00 13,8 11,0 10 5 13 7 N 1020,2 60 0 0,0
16.10.2018 21:00:00 14,4 11,2 12 7 21 12 NNW 1020,0 60 0 0,0
16.10.2018 20:00:00 14,6 10,8 15 8 19 11 NNW 1019,7 60 0 0,0
16.10.2018 19:00:00 15,8 11,0 15 8 21 11 NNW 1019,5 59 54 0,0
16.10.2018 18:00:00 17,1 10,7 10 5 14 8 NNW 1019,1 54 60 0,0
16.10.2018 17:00:00 17,7 10,6 7 4 17 9 NNW 1018,9 57 60 0,0
16.10.2018 16:00:00 17,7 11,0 11 6 18 10 NNW 1018,8 59 60 0,0
16.10.2018 15:00:00 17,5 12,2 10 5 16 8 NNW 1018,8 60 57 0,2
16.10.2018 14:00:00 17,1 12,6 9 5 15 8 NNW 1018,8 60 57 0,0
16.10.2018 13:00:00 15,9 11,5 8 4 14 7 NNW 1019,0 48 26 0,0
16.10.2018 12:00:00 14,9 12,2 5 3 11 6 NNW 1018,6 20 24 0,0
16.10.2018 11:00:00 16,5 13,2 0 0 7 4 N 1018,0 47 60 0,0
16.10.2018 10:00:00 14,6 14,1 3 1 7 4 Z 1017,3 15 60 0,0
16.10.2018 09:00:00 10,8 10,3 2 1 6 3 ZZO 1016,9 6 15 0,0
16.10.2018 08:00:00 11,7 11,2 0 0 4 2 N 1016,3 0,4 0 0,0
16.10.2018 07:00:00 10,8 10,3 0 0 8 5 N 1015,8 6 0 0,0
16.10.2018 06:00:00 11,6 10,8 6 3 8 5 ZO 1015,4 10 0 0,0
16.10.2018 05:00:00 12,8 12,2 6 3 17 9 Z 1015,1 15 0 0,0
16.10.2018 04:00:00 12,9 12,1 8 4 12 6 Z 1015,0 31 0 0,2
16.10.2018 03:00:00 13,4 12,5 5 3 9 5 ZZW 1014,5 20 0 0,0
16.10.2018 02:00:00 13,9 12,9 0 0 8 4 N 1014,2 11 0 0,0
16.10.2018 01:00:00 14,0 13,0 0 0 5 3 N 1013,8 16 0 0,0
16.10.2018 00:00:00 13,9 12,9 0 0 7 4 N 1013,2 14 0 0,0
15.10.2018 23:00:00 13,9 12,8 7 4 10 6 WNW 1012,8 4,8 0 0,0
15.10.2018 22:00:00 13,9 12,1 8 4 16 9 WNW 1012,4 44 0 0,0
15.10.2018 21:00:00 14,4 12,1 11 6 22 12 NW 1011,1 60 0 0,0
15.10.2018 20:00:00 14,1 11,4 14 8 21 12 NNW 1010,6 60 0 0,0
15.10.2018 19:00:00 13,9 12,3 12 6 18 10 N 1010,0 55 0 0,0
15.10.2018 18:00:00 13,5 12,6 14 8 20 11 N 1009,4 18 0 1,2
15.10.2018 17:00:00 13,3 11,9 15 8 21 11 N 1009,5 6 0 0,4
15.10.2018 16:00:00 13,5 12,1 12 7 18 10 N 1009,2 5 0 0,8
15.10.2018 15:00:00 13,3 11,9 10 6 20 11 N 1009,3 3,2 0 1,2
15.10.2018 14:00:00 15,1 12,4 13 7 17 9 NO 1009,2 60 0 0,2
15.10.2018 13:00:00 14,8 12,7 9 5 16 8 O 1009,5 18 0 0,0
15.10.2018 12:00:00 14,5 13,0 10 6 15 8 ONO 1008,5 6 0 0,2
15.10.2018 11:00:00 14,7 12,7 10 5 14 8 O 1008,7 18 0 0,0
15.10.2018 10:00:00 14,3 12,5 5 3 10 6 ONO 1008,2 14 0 0,0
15.10.2018 09:00:00 13,9 12,1 3 1 9 5 ONO 1008,0 45 0 0,0
15.10.2018 08:00:00 14,1 11,8 8 4 11 6 NW 1007,8 60 0 0,0
15.10.2018 07:00:00 13,7 11,6 0 0 8 4 N 1007,9 60 0 0,0
15.10.2018 06:00:00 13,9 11,6 7 4 9 5 WNW 1007,5 60 0 0,0
15.10.2018 05:00:00 14,4 12,1 5 3 11 6 W 1007,7 60 0 0,0
15.10.2018 04:00:00 14,6 11,9 7 4 17 9 W 1007,8 60 0 0,0
15.10.2018 03:00:00 14,3 12,2 11 6 28 15 WNW 1008,3 60 0 0,2
15.10.2018 02:00:00 15,1 11,7 13 7 29 15 W 1008,2 60 0 0,0
15.10.2018 01:00:00 15,0 12,3 14 8 25 13 W 1007,8 60 0 0,0
15.10.2018 00:00:00 14,8 12,1 14 8 22 12 WNW 1007,3 60 0 0,0
14.10.2018 23:00:00 14,7 12,7 14 8 24 13 W 1006,9 60 0 0,0
14.10.2018 22:00:00 14,8 13,3 15 8 26 14 WNW 1006,3 60 0 0,0
14.10.2018 21:00:00 15,1 13,8 16 9 33 18 WNW 1005,9 45 0 0,6
14.10.2018 20:00:00 16,0 14,4 19 10 32 17 W 1006,1 14 0 0,0
14.10.2018 19:00:00 16,3 14,5 18 10 32 17 W 1004,1 59 4 0,0
14.10.2018 18:00:00 16,9 15,6 23 12 38 20 W 1003,5 16 0 0,0
14.10.2018 17:00:00 17,9 16,2 24 13 37 20 W 1003,8 14 0 0,0
14.10.2018 16:00:00 19,7 16,0 17 9 33 18 WZW 1003,5 37 1 0,0
14.10.2018 15:00:00 22,0 16,3 20 11 33 18 ZZW 1003,3 20 8 0,0

tt = temperatuur
td = dauwpunt
ff = windsnelheid
fx = windstoten
dd = windrichting
ppp = luchtdruk
vv = zicht
sd = Zonneschijnduur
rr = neerslag

Weerstations in de omgeving